Location: Utrecht
(52.0917°N, 5.1178°E)
Time: 20:45:52
(UTC+01:00)

Amateur Radio Satellites - All Passes

Search period start: 17 December 2017 20:15
Search period end: 18 December 2017 20:15
Location: Utrecht, 52.0917°N, 5.1178°E

Satellite Date Start Highest point End Downlink Frequencies (MHz)
Time Altitude Azimuth
BEESAT 3 17 Dec 20:33:46 20:37:45 67° 128° (SE) 20:41:44 437.485
SEEDS 17 Dec 20:36:44 20:38:36 13° 274° (W) 20:40:30 437.485
UWE-3 17 Dec 20:42:57 20:45:43 17° 271° (W) 20:48:29 435.000/436.395/437.385
AAUSAT CUBESAT 2 17 Dec 20:44:10 20:47:18 20° 269° (W) 20:50:27 437.432
Max Valier Satellite 17 Dec 20:44:52 20:48:07 31° 67° (ENE) 20:51:26 145.860
HO-68 17 Dec 20:47:04 20:51:16 16° 277° (W) 20:55:30 435.675
ZACube-1 17 Dec 21:00:14 21:03:19 20° 269° (W) 21:06:28 437.345
EO-88 17 Dec 21:05:07 21:08:29 36° 68° (ENE) 21:11:53 145.990 - 145.960
Oscar 11 17 Dec 21:13:36 21:17:11 25° 267° (W) 21:20:48 .
DELFI C3 17 Dec 21:14:12 21:18:13 90° 353° (N) 21:22:14 145.870
STRAND 1 17 Dec 21:15:09 21:20:00 44° 294° (WNW) 21:24:48 437.568
BEESAT 2 17 Dec 21:21:32 21:25:31 61° 127° (SE) 21:29:32 435.950
SO-50 17 Dec 21:22:14 21:26:03 25° 23° (NNE) 21:29:55 436.795
LO-87 17 Dec 21:27:48 21:28:58 11° 57° (ENE) 21:30:07 145.935 - 145.965
AO-85 17 Dec 21:30:08 21:33:17 23° 116° (ESE) 21:36:34 145.980
AO-73 17 Dec 21:34:11 21:35:37 11° 275° (W) 21:37:03 145.935
PCSat 17 Dec 21:42:48 21:47:04 23° 337° (NNW) 21:51:21 145.827
FO-29 17 Dec 21:45:42 21:52:46 76° 289° (WNW) 21:58:57 435.910
RS-15 17 Dec 21:55:21 22:07:23 65° 34° (NE) 22:18:46 29.354- 29.394
PRISM 17 Dec 22:03:32 22:04:41 11° 86° (E) 22:05:51 437.425
BEESAT 3 17 Dec 22:12:10 22:15:36 27° 329° (NNW) 22:19:04 437.485
ESTCUBE 1 17 Dec 22:13:08 22:17:06 31° 63° (ENE) 22:21:07 437.505/2401.250
SPROUT 17 Dec 22:15:19 22:15:50 10° 51° (NE) 22:16:21 437.525
TIGRISAT 17 Dec 22:18:18 22:22:29 45° 99° (E) 22:26:45 435.000
Max Valier Satellite 17 Dec 22:18:50 22:21:58 26° 266° (W) 22:25:08 145.860
UNISAT 6 17 Dec 22:22:28 22:26:45 54° 100° (E) 22:31:06 437.425
EO-88 17 Dec 22:39:19 22:42:14 22° 267° (W) 22:45:11 145.990 - 145.960
DELFI C3 17 Dec 22:52:24 22:53:34 11° 274° (W) 22:54:43 145.870
LO-87 17 Dec 22:58:16 23:01:48 86° 260° (W) 23:05:21 145.935 - 145.965
BEESAT 2 17 Dec 22:59:58 23:03:31 29° 328° (NNW) 23:07:07 435.950
SO-50 17 Dec 23:02:33 23:07:12 76° 45° (NE) 23:11:56 436.795
AO-85 17 Dec 23:09:21 23:13:19 58° 318° (NW) 23:17:35 145.980
AIST 2D 17 Dec 23:13:38 23:16:28 22° 93° (E) 23:19:16 435.315
PCSat 17 Dec 23:28:59 23:32:26 17° 3° (N) 23:35:54 145.827
FO-29 17 Dec 23:31:37 23:36:39 21° 313° (NW) 23:41:20 435.910
VELOX 1 17 Dec 23:32:04 23:35:59 31° 64° (ENE) 23:39:55 145.980
PRISM 17 Dec 23:36:29 23:40:38 87° 105° (ESE) 23:44:42 437.425
NANOSAT C BR1 17 Dec 23:38:43 23:41:01 14° 88° (E) 23:43:19 145.865
SPROUT 17 Dec 23:46:41 23:50:51 60° 71° (ENE) 23:55:03 437.525
ESTCUBE 1 17 Dec 23:49:34 23:53:49 39° 263° (W) 23:58:07 437.505/2401.250
BEESAT 3 17 Dec 23:52:15 23:54:22 14° 353° (N) 23:56:29 437.485
TIGRISAT 17 Dec 23:55:25 23:59:01 26° 297° (WNW) 00:02:39 435.000
EO-79 17 Dec 23:55:34 23:58:55 23° 92° (E) 00:02:16 145.935-145.965
UKube-1 17 Dec 23:57:23 23:58:44 11° 51° (NE) 00:00:05 .
UNISAT 6 17 Dec 23:59:48 00:03:11 23° 299° (WNW) 00:06:37 437.425
RS-15 18 Dec 00:08:26 00:19:54 58° 243° (WSW) 00:30:45 29.354- 29.394
DX 1 18 Dec 00:17:43 00:21:11 23° 60° (ENE) 00:24:39 434.975-435.025
POLYITAN 1 18 Dec 00:19:08 00:23:05 37° 97° (E) 00:27:01 437.675
50 SAT 18 Dec 00:36:51 00:39:28 24° 66° (ENE) 00:42:05 437.505
BEESAT 2 18 Dec 00:40:10 00:42:28 14° 352° (N) 00:44:45 435.950
SO-50 18 Dec 00:43:43 00:47:14 21° 245° (WSW) 00:50:46 436.795
DUCHIFAT 1 18 Dec 00:44:36 00:48:43 51° 100° (E) 00:52:49 145.980
QB50P2 18 Dec 00:45:00 00:49:15 72° 104° (ESE) 00:53:28 145.880/145.840
AIST 2D 18 Dec 00:46:28 00:49:44 35° 291° (WNW) 00:52:59 435.315
AO-85 18 Dec 00:51:27 00:54:37 20° 342° (NNW) 00:57:56 145.980
VELOX 1 18 Dec 01:08:12 01:12:21 38° 263° (W) 01:16:32 145.980
Gurwin Techsat 1B 18 Dec 01:10:57 01:13:57 15° 86° (E) 01:16:57 435.225
BUGSAT 1 18 Dec 01:12:04 01:15:30 26° 94° (E) 01:18:56 437.445
NANOSAT C BR1 18 Dec 01:13:02 01:17:15 76° 287° (WNW) 01:21:27 145.865
PCSat 18 Dec 01:13:05 01:17:41 27° 29° (NNE) 01:22:15 145.827
PRISM 18 Dec 01:13:06 01:15:18 14° 305° (NW) 01:17:30 437.425
BEESAT 18 Dec 01:14:27 01:16:37 13° 50° (NE) 01:18:48 436.000
SPROUT 18 Dec 01:24:11 01:27:07 18° 270° (W) 01:30:05 437.525
UKube-1 18 Dec 01:29:39 01:33:56 64° 70° (ENE) 01:38:14 .
BEESAT 3 18 Dec 01:30:48 01:33:23 16° 16° (NNE) 01:35:57 437.485
EO-79 18 Dec 01:30:51 01:34:54 47° 291° (WNW) 01:38:57 145.935-145.965
Oscar 19 18 Dec 01:40:20 01:45:01 32° 95° (E) 01:49:41 437.125/150
ITUPSAT 1 18 Dec 01:43:28 01:46:58 21° 57° (ENE) 01:50:29 437.325
DX 1 18 Dec 01:52:48 01:57:05 53° 259° (W) 02:01:24 434.975-435.025
YUBILEINY 18 Dec 01:53:04 01:59:57 27° 77° (ENE) 02:06:50 435.215
POLYITAN 1 18 Dec 01:55:06 01:58:47 29° 296° (WNW) 02:02:27 437.675
CUBESAT XI-V 18 Dec 01:56:40 01:58:21 12° 50° (NE) 02:00:03 437.345
MOZHAYETS 4 18 Dec 01:58:19 02:02:22 33° 64° (ENE) 02:06:27
50 SAT 18 Dec 02:08:38 02:11:20 25° 264° (W) 02:14:02 437.505
BEESAT 2 18 Dec 02:19:03 02:21:41 16° 16° (NNE) 02:24:18 435.950
DUCHIFAT 1 18 Dec 02:20:50 02:24:06 22° 299° (WNW) 02:27:21 145.980
QB50P2 18 Dec 02:21:48 02:24:34 17° 302° (WNW) 02:27:19 145.880/145.840
RS-15 18 Dec 02:23:25 02:29:23 16° 268° (W) 02:35:13 29.354- 29.394
AO-91 18 Dec 02:28:34 02:32:04 82° 105° (ESE) 02:35:26 145.960
AO-85 18 Dec 02:33:42 02:36:34 17° 7° (N) 02:39:34 145.980
BUGSAT 1 18 Dec 02:47:12 02:50:57 37° 293° (WNW) 02:54:43 437.445
BEESAT 18 Dec 02:48:50 02:53:33 66° 70° (ENE) 02:58:17 436.000
Gurwin Techsat 1B 18 Dec 02:49:22 02:54:44 84° 105° (ESE) 03:00:04 435.225
NANOSAT C BR1 18 Dec 02:50:30 02:52:15 12° 306° (NW) 02:53:59 145.865
PCSat 18 Dec 02:56:22 03:01:51 84° 51° (NE) 03:07:17 145.827
ITAMSAT 1 18 Dec 03:01:51 03:03:49 12° 84° (E) 03:05:46 435.822/435.867
UKube-1 18 Dec 03:07:26 03:10:22 18° 270° (W) 03:13:19 .
BEESAT 3 18 Dec 03:08:01 03:11:51 44° 39° (NE) 03:15:37 437.485
Oscar 19 18 Dec 03:19:32 03:24:30 46° 294° (WNW) 03:29:27 437.125/150
ITUPSAT 1 18 Dec 03:19:35 03:24:20 71° 256° (WSW) 03:29:07 437.325
KKS-1 18 Dec 03:24:13 03:26:56 16° 55° (NE) 03:29:39 437.445
M-CUBED/EXP-1 PRIME 18 Dec 03:25:05 03:27:25 14° 92° (E) 03:29:40 437.505
CUBESAT XI-V 18 Dec 03:30:12 03:34:48 61° 71° (ENE) 03:39:28 437.345
MOZHAYETS 4 18 Dec 03:35:14 03:39:28 37° 263° (W) 03:43:46
AO-7 18 Dec 03:41:23 03:49:14 41° 98° (E) 03:57:01 .
YUBILEINY 18 Dec 03:46:50 03:55:42 87° 282° (WNW) 04:04:38 435.215
BEESAT 2 18 Dec 03:56:30 04:00:23 42° 38° (NE) 04:04:13 435.950
STARS 18 Dec 03:57:26 03:59:48 15° 54° (NE) 04:02:12 437.465
AO-91 18 Dec 04:07:10 04:07:58 11° 305° (NW) 04:08:45 145.960
AO-85 18 Dec 04:14:14 04:18:18 30° 30° (NNE) 04:22:37 145.980
DOVE 4 18 Dec 04:21:32 04:23:31 13° 84° (E) 04:25:28 437.250
BEESAT 18 Dec 04:28:21 04:31:47 20° 270° (W) 04:35:14 436.000
Gurwin Techsat 1B 18 Dec 04:30:13 04:34:05 21° 306° (NW) 04:37:57 435.225
ITAMSAT 1 18 Dec 04:39:02 04:44:15 71° 104° (ESE) 04:49:24 435.822/435.867
PCSat 18 Dec 04:40:41 04:44:38 21° 252° (WSW) 04:48:34 145.827
BEESAT 3 18 Dec 04:45:46 04:49:16 30° 239° (WSW) 04:52:42 437.485
M-CUBED/EXP-1 PRIME 18 Dec 04:57:54 05:02:28 89° 295° (WNW) 05:06:45 437.505
KKS-1 18 Dec 04:58:26 05:02:54 87° 255° (WSW) 05:07:24 437.445
Oscar 19 18 Dec 05:01:37 05:02:37 11° 315° (NW) 05:03:37 437.125/150
ITUPSAT 1 18 Dec 05:01:51 05:03:03 11° 276° (W) 05:04:15 437.325
CUBESAT XI-V 18 Dec 05:09:02 05:12:35 21° 270° (W) 05:16:08 437.345
STRAND 1 18 Dec 05:20:52 05:24:00 17° 52° (NE) 05:27:07 437.568
STARS 18 Dec 05:31:06 05:35:30 85° 77° (ENE) 05:39:55 437.465
AO-7 18 Dec 05:34:10 05:42:22 62° 300° (WNW) 05:50:34 .
BEESAT 2 18 Dec 05:34:22 05:38:03 34° 239° (WSW) 05:41:40 435.950
YUBILEINY 18 Dec 05:46:43 05:53:55 27° 305° (NW) 06:01:10 435.215
NUDT-PHONESAT 18 Dec 05:54:09 05:55:50 13° 88° (E) 05:57:32 437.300
AO-85 18 Dec 05:54:27 05:59:07 75° 231° (SW) 06:04:10 145.980
LilacSat-2 18 Dec 05:55:34 05:58:31 20° 91° (E) 06:01:27 437.200
DOVE 4 18 Dec 05:57:26 06:02:00 88° 283° (WNW) 06:06:17 437.250
KAITUO 1B 18 Dec 06:03:49 06:06:20 17° 90° (E) 06:08:52 145.475/437.950
XW-2D 18 Dec 06:04:43 06:07:53 23° 93° (E) 06:11:00 145.860 - 145.880
HO-68 18 Dec 06:17:32 06:22:15 18° 85° (E) 06:26:57 435.675
FO-29 18 Dec 06:18:21 06:24:45 29° 53° (NE) 06:30:58 435.910
ITAMSAT 1 18 Dec 06:19:14 06:23:15 23° 304° (NW) 06:27:16 435.822/435.867
XW-2B 18 Dec 06:20:31 06:24:01 32° 96° (E) 06:27:29 145.730 - 145.750
XW-2F 18 Dec 06:29:13 06:32:50 37° 97° (E) 06:36:24 145.980 - 146.000
CUTE-I 18 Dec 06:30:44 06:35:38 35° 96° (E) 06:40:29 437.470
M-CUBED/EXP-1 PRIME 18 Dec 06:33:12 06:36:11 17° 312° (NW) 06:39:03 437.505
KKS-1 18 Dec 06:38:13 06:40:08 13° 273° (W) 06:42:05 437.445
SEEDS 18 Dec 06:38:35 06:39:27 10° 84° (E) 06:40:18 437.485
XW-2C 18 Dec 06:47:58 06:51:49 64° 101° (E) 06:55:38 145.795 - 145.815
NO-84 18 Dec 06:49:38 06:52:28 37° 145° (SE) 06:55:32 435.350 FM
CUBEBUG 2 18 Dec 06:57:11 06:59:56 16° 89° (E) 07:02:42 437.445
STRAND 1 18 Dec 06:57:19 07:02:26 79° 73° (ENE) 07:07:34 437.568
CUTE 1.7 + AOD 2 18 Dec 07:06:33 07:10:22 30° 94° (E) 07:14:08 437.475
STARS 18 Dec 07:10:14 07:12:27 14° 273° (W) 07:14:39 437.465
O/OREOS (USA 219) 18 Dec 07:16:27 07:18:44 14° 98° (E) 07:21:01 437.305
NUDT-PHONESAT 18 Dec 07:26:23 07:30:08 71° 287° (WNW) 07:33:53 437.300
AO-7 18 Dec 07:27:41 07:33:39 22° 323° (NW) 07:39:38 .
LilacSat-2 18 Dec 07:29:16 07:33:01 45° 290° (WNW) 07:36:43 437.200
AO-85 18 Dec 07:36:15 07:38:56 15° 248° (WSW) 07:41:41 145.980
DOVE 4 18 Dec 07:36:28 07:38:58 15° 306° (NW) 07:41:23 437.250
KAITUO 1B 18 Dec 07:36:54 07:40:37 53° 289° (WNW) 07:44:19 145.475/437.950
AO-73 18 Dec 07:37:59 07:39:56 13° 86° (E) 07:41:55 145.935
XW-2D 18 Dec 07:38:34 07:42:10 38° 292° (WNW) 07:45:44 145.860 - 145.880
TIGRISAT 18 Dec 07:48:42 07:50:29 12° 54° (NE) 07:52:17 435.000
UNISAT 6 18 Dec 07:52:26 07:54:43 14° 55° (NE) 07:57:02 437.425
XW-2B 18 Dec 07:54:48 07:58:08 28° 295° (WNW) 08:01:27 145.730 - 145.750
FO-29 18 Dec 08:01:04 08:08:58 89° 69° (ENE) 08:16:42 435.910
XW-2F 18 Dec 08:03:38 08:06:47 24° 296° (WNW) 08:09:56 145.980 - 146.000
HO-68 18 Dec 08:03:59 08:11:12 77° 106° (ESE) 08:18:22 435.675
CUTE-I 18 Dec 08:10:45 08:15:47 43° 296° (WNW) 08:20:46 437.470
SEEDS 18 Dec 08:11:35 08:15:53 80° 105° (ESE) 08:20:06 437.485
AAUSAT CUBESAT 2 18 Dec 08:19:01 08:23:03 44° 98° (E) 08:27:01 437.432
XW-2C 18 Dec 08:23:06 08:25:34 16° 300° (WNW) 08:28:01 145.795 - 145.815
UWE-3 18 Dec 08:24:21 08:28:39 63° 101° (ESE) 08:33:03 435.000/436.395/437.385
NO-84 18 Dec 08:26:26 08:29:35 63° 346° (NNW) 08:33:01 435.350 FM
CUBEBUG 2 18 Dec 08:32:44 08:36:59 68° 287° (WNW) 08:41:20 437.445
XW-2A 18 Dec 08:36:03 08:39:29 67° 102° (ESE) 08:42:54 145.665 - 145.685
STRAND 1 18 Dec 08:38:47 08:42:14 18° 272° (W) 08:45:43 437.568
ZACube-1 18 Dec 08:40:51 08:45:08 51° 100° (E) 08:49:29 437.345
CUTE 1.7 + AOD 2 18 Dec 08:42:18 08:46:15 36° 293° (WNW) 08:50:10 437.475
O/OREOS (USA 219) 18 Dec 08:52:51 08:57:26 89° 125° (SE) 09:02:02 437.305
Oscar 11 18 Dec 08:54:00 08:58:11 41° 98° (E) 09:02:19 .
PRISM 18 Dec 08:56:55 08:59:50 19° 59° (ENE) 09:02:46 437.425
AO-73 18 Dec 09:12:24 09:16:47 89° 81° (E) 09:21:16 145.935
AO-7 18 Dec 09:21:07 09:23:24 11° 350° (N) 09:25:42 .
TIGRISAT 18 Dec 09:22:14 09:26:28 77° 74° (ENE) 09:30:44 435.000
UNISAT 6 18 Dec 09:26:34 09:30:51 90° 287° (WNW) 09:35:08 437.425
Max Valier Satellite 18 Dec 09:42:42 09:45:32 20° 92° (E) 09:48:20 145.860
SEEDS 18 Dec 09:48:24 09:51:00 16° 303° (WNW) 09:53:35 437.485
FO-29 18 Dec 09:48:33 09:54:50 26° 273° (W) 10:01:04 435.910
HO-68 18 Dec 09:52:19 09:58:23 31° 308° (NW) 10:04:25 435.675
AIST 2D 18 Dec 09:53:08 09:55:46 20° 63° (ENE) 09:58:26 435.315
CUTE-I 18 Dec 09:53:51 09:54:33 10° 317° (NW) 09:55:15 437.470
AAUSAT CUBESAT 2 18 Dec 09:54:53 09:58:16 24° 298° (WNW) 10:01:38 437.432
EO-88 18 Dec 10:01:34 10:04:29 22° 93° (E) 10:07:23 145.990 - 145.960
UWE-3 18 Dec 10:01:37 10:04:45 20° 300° (WNW) 10:07:56 435.000/436.395/437.385
NO-84 18 Dec 10:03:50 10:07:08 53° 7° (N) 10:10:42 435.350 FM
DUCHIFAT 1 18 Dec 10:08:47 10:10:29 12° 54° (NE) 10:12:11 145.980
QB50P2 18 Dec 10:08:52 10:11:30 17° 57° (ENE) 10:14:10 145.880/145.840
XW-2A 18 Dec 10:10:04 10:11:43 13° 301° (WNW) 10:13:22 145.665 - 145.685
CUBEBUG 2 18 Dec 10:11:31 10:12:52 11° 306° (NW) 10:14:12 437.445
ZACube-1 18 Dec 10:17:41 10:21:09 24° 298° (WNW) 10:24:41 437.345
DELFI C3 18 Dec 10:19:52 10:23:49 68° 102° (ESE) 10:27:44 145.870
Oscar 11 18 Dec 10:30:27 10:34:10 28° 297° (WNW) 10:37:52 .
PRISM 18 Dec 10:30:35 10:34:42 63° 258° (WSW) 10:38:51 437.425
ISS 18 Dec 10:31:51 10:32:33 11° 137° (SE) 10:33:16 437.550
O/OREOS (USA 219) 18 Dec 10:34:11 10:37:31 19° 320° (NW) 10:40:50 437.305
NANOSAT C BR1 18 Dec 10:35:36 10:38:51 22° 61° (ENE) 10:42:07 145.865
AO-73 18 Dec 10:49:57 10:52:27 15° 303° (WNW) 10:54:58 145.935
EO-79 18 Dec 10:52:54 10:56:42 34° 66° (ENE) 11:00:30 145.935-145.965
TIGRISAT 18 Dec 11:01:26 11:03:44 14° 272° (W) 11:06:01 435.000
UNISAT 6 18 Dec 11:06:35 11:08:14 12° 274° (W) 11:09:52 437.425
AO-7 18 Dec 11:09:15 11:12:38 13° 18° (NNE) 11:16:03 .
nSIGHT-1 18 Dec 11:09:49 11:12:25 23° 147° (SSE) 11:15:01 .
Max Valier Satellite 18 Dec 11:15:58 11:19:32 42° 290° (WNW) 11:23:04 145.860
POLYITAN 1 18 Dec 11:16:38 11:20:43 56° 71° (ENE) 11:24:50 437.675
AIST 2D 18 Dec 11:25:23 11:28:42 40° 262° (W) 11:32:05 435.315
Oscar 19 18 Dec 11:25:56 11:29:10 17° 52° (NE) 11:32:26 437.125/150
EO-88 18 Dec 11:34:49 11:38:15 37° 291° (WNW) 11:41:39 145.990 - 145.960
ESTCUBE 1 18 Dec 11:36:03 11:40:03 29° 94° (E) 11:44:02 437.505/2401.250
NO-84 18 Dec 11:41:00 11:44:30 69° 207° (SSW) 11:48:18 435.350 FM
DUCHIFAT 1 18 Dec 11:41:17 11:45:26 77° 74° (ENE) 11:49:37 145.980
HO-68 18 Dec 11:42:35 11:43:57 11° 332° (NNW) 11:45:18 435.675
QB50P2 18 Dec 11:42:36 11:46:48 75° 257° (WSW) 11:51:01 145.880/145.840
LO-87 18 Dec 11:52:32 11:56:01 52° 100° (E) 11:59:30 145.935 - 145.965
YUBILEINY 18 Dec 11:53:49 12:00:01 20° 47° (NE) 12:06:10 435.215
AO-91 18 Dec 11:55:20 11:58:32 20° 62° (ENE) 12:01:32 145.960
DELFI C3 18 Dec 11:55:38 11:58:06 16° 301° (WNW) 12:00:34 145.870
ISS 18 Dec 12:05:15 12:08:21 39° 156° (SSE) 12:11:29 437.550
BUGSAT 1 18 Dec 12:06:44 12:10:27 38° 67° (ENE) 12:14:12 437.445
NANOSAT C BR1 18 Dec 12:10:14 12:14:17 49° 260° (W) 12:18:22 145.865
EO-79 18 Dec 12:28:46 12:32:29 30° 265° (W) 12:36:13 145.935-145.965
RS-15 18 Dec 12:32:16 12:38:39 16° 92° (E) 12:44:59 29.354- 29.394
Gurwin Techsat 1B 18 Dec 12:36:50 12:41:47 41° 64° (ENE) 12:46:46 435.225
M-CUBED/EXP-1 PRIME 18 Dec 12:44:23 12:44:48 10° 40° (NE) 12:45:13 437.505
nSIGHT-1 18 Dec 12:45:03 12:48:16 67° 167° (SSE) 12:51:29 .
VELOX 1 18 Dec 12:52:16 12:56:02 27° 94° (E) 12:59:47 145.980
POLYITAN 1 18 Dec 12:53:52 12:56:50 19° 269° (W) 12:59:50 437.675
AO-7 18 Dec 12:55:58 13:02:47 30° 44° (NE) 13:09:39 .
SPROUT 18 Dec 13:02:08 13:06:18 52° 100° (E) 13:10:27 437.525
Oscar 19 18 Dec 13:02:35 13:07:44 80° 72° (ENE) 13:12:57 437.125/150
ESTCUBE 1 18 Dec 13:12:42 13:16:58 40° 294° (WNW) 13:21:12 437.505/2401.250
NO-84 18 Dec 13:18:50 13:21:22 17° 224° (SW) 13:23:59 435.350 FM
DUCHIFAT 1 18 Dec 13:19:28 13:21:38 14° 272° (W) 13:23:49 145.980
LO-87 18 Dec 13:26:47 13:29:05 16° 299° (WNW) 13:31:23 145.935 - 145.965
AO-91 18 Dec 13:30:12 13:34:45 61° 258° (WSW) 13:38:51 145.960
DX 1 18 Dec 13:35:52 13:38:53 18° 90° (E) 13:41:52 434.975-435.025
ISS 18 Dec 13:41:23 13:44:41 83° 172° (S) 13:48:00 437.550
BUGSAT 1 18 Dec 13:42:34 13:45:56 25° 266° (W) 13:49:18 437.445
YUBILEINY 18 Dec 13:50:05 13:58:55 66° 74° (ENE) 14:07:38 435.215
M-CUBED/EXP-1 PRIME 18 Dec 14:13:47 14:18:03 42° 60° (ENE) 14:22:27 437.505
Gurwin Techsat 1B 18 Dec 14:16:52 14:21:48 37° 264° (W) 14:26:45 435.225
nSIGHT-1 18 Dec 14:21:12 14:24:26 81° 183° (S) 14:27:40 .
ITAMSAT 1 18 Dec 14:24:01 14:28:41 34° 62° (ENE) 14:33:22 435.822/435.867
VELOX 1 18 Dec 14:28:27 14:32:38 42° 293° (WNW) 14:36:47 145.980
RS-15 18 Dec 14:36:25 14:48:15 57° 117° (ESE) 14:59:55 29.354- 29.394
SPROUT 18 Dec 14:38:36 14:41:54 22° 299° (WNW) 14:45:12 437.525
Oscar 19 18 Dec 14:44:14 14:47:43 18° 272° (W) 14:51:13 437.125/150
BEESAT 18 Dec 14:45:34 14:46:48 11° 84° (E) 14:48:00 436.000
AO-7 18 Dec 14:46:17 14:54:37 86° 67° (ENE) 15:03:02 .
UKube-1 18 Dec 14:46:44 14:50:58 51° 101° (E) 14:55:09 .
50 SAT 18 Dec 14:50:14 14:53:23 75° 287° (WNW) 14:56:32 437.505
SO-50 18 Dec 15:02:18 15:06:16 32° 120° (ESE) 15:10:18 436.795
DX 1 18 Dec 15:11:10 15:15:29 63° 289° (WNW) 15:19:46 434.975-435.025
ITUPSAT 1 18 Dec 15:14:54 15:18:24 20° 90° (E) 15:21:52 437.325
ISS 18 Dec 15:17:51 15:21:08 63° 195° (SSW) 15:24:24 437.550
CUBESAT XI-V 18 Dec 15:23:46 15:24:30 10° 83° (E) 15:25:15 437.345
MOZHAYETS 4 18 Dec 15:24:01 15:28:15 34° 96° (E) 15:32:27
DOVE 4 18 Dec 15:30:40 15:35:04 29° 63° (ENE) 15:39:18 437.250
O/OREOS (USA 219) 18 Dec 15:39:37 15:42:26 16° 37° (NE) 15:45:13 437.305
YUBILEINY 18 Dec 15:47:28 15:55:14 37° 278° (W) 16:02:58 435.215
M-CUBED/EXP-1 PRIME 18 Dec 15:48:26 15:52:29 32° 259° (W) 15:56:40 437.505
nSIGHT-1 18 Dec 15:57:27 16:00:26 35° 206° (SSW) 16:03:25 .
ITAMSAT 1 18 Dec 16:03:05 16:08:04 44° 261° (W) 16:13:04 435.822/435.867
CUTE-I 18 Dec 16:20:10 16:24:01 21° 54° (NE) 16:27:52 437.470
BEESAT 18 Dec 16:20:40 16:25:27 71° 103° (ESE) 16:30:12 436.000
UKube-1 18 Dec 16:23:17 16:26:42 23° 300° (WNW) 16:30:06 .
NUDT-PHONESAT 18 Dec 16:38:22 16:40:26 14° 59° (ENE) 16:42:30 437.300
AO-7 18 Dec 16:41:36 16:48:23 27° 269° (W) 16:55:15 .
SO-50 18 Dec 16:42:11 16:46:35 51° 321° (NW) 16:51:03 436.795
LilacSat-2 18 Dec 16:42:37 16:45:42 23° 63° (ENE) 16:48:48 437.200
KKS-1 18 Dec 16:45:28 16:47:12 12° 86° (E) 16:48:57 437.445
RS-15 18 Dec 16:48:27 17:00:46 67° 324° (NW) 17:12:48 29.354- 29.394
KAITUO 1B 18 Dec 16:48:53 16:51:36 19° 61° (ENE) 16:54:19 145.475/437.950
DX 1 18 Dec 16:49:31 16:50:50 11° 309° (NW) 16:52:07 434.975-435.025
XW-2D 18 Dec 16:51:01 16:54:14 26° 65° (ENE) 16:57:28 145.860 - 145.880
ITUPSAT 1 18 Dec 16:51:55 16:56:40 66° 290° (WNW) 17:01:25 437.325
HO-68 18 Dec 16:52:17 16:58:11 28° 50° (NE) 17:04:04 435.675
ISS 18 Dec 16:54:39 16:57:13 21° 214° (SW) 16:59:45 437.550
CUBESAT XI-V 18 Dec 16:58:02 17:02:47 69° 102° (ESE) 17:07:28 437.345
MOZHAYETS 4 18 Dec 17:01:11 17:05:26 37° 295° (WNW) 17:09:40
XW-2B 18 Dec 17:06:43 17:10:12 35° 68° (ENE) 17:13:44 145.730 - 145.750
DOVE 4 18 Dec 17:07:29 17:12:33 51° 261° (W) 17:17:24 437.250
XW-2F 18 Dec 17:14:54 17:18:28 40° 69° (ENE) 17:22:05 145.980 - 146.000
STARS 18 Dec 17:17:39 17:18:04 10° 85° (E) 17:18:29 437.465
O/OREOS (USA 219) 18 Dec 17:18:11 17:22:43 70° 59° (ENE) 17:27:11 437.305
XW-2C 18 Dec 17:34:02 17:37:49 69° 73° (ENE) 17:41:39 145.795 - 145.815
SEEDS 18 Dec 17:34:29 17:37:11 17° 58° (ENE) 17:39:54 437.485
AAUSAT CUBESAT 2 18 Dec 17:43:23 17:43:25 10° 52° (NE) 17:43:27 437.432
PCSat 18 Dec 17:44:40 17:48:48 23° 109° (ESE) 17:52:58 145.827
UWE-3 18 Dec 17:52:38 17:54:55 15° 56° (NE) 17:57:11 435.000/436.395/437.385
CUTE-I 18 Dec 17:58:04 18:03:27 86° 254° (WSW) 18:08:51 437.470
BEESAT 18 Dec 17:59:15 18:02:46 21° 303° (WNW) 18:06:17 436.000
CUBEBUG 2 18 Dec 18:00:28 18:03:55 26° 63° (ENE) 18:07:21 437.445
CUTE 1.7 + AOD 2 18 Dec 18:04:08 18:08:10 42° 68° (ENE) 18:12:14 437.475
ZACube-1 18 Dec 18:08:47 18:10:26 12° 54° (NE) 18:12:07 437.345
NUDT-PHONESAT 18 Dec 18:10:05 18:13:47 70° 257° (WSW) 18:17:32 437.300
LilacSat-2 18 Dec 18:16:09 18:19:46 40° 262° (W) 18:23:28 437.200
KKS-1 18 Dec 18:20:00 18:24:28 85° 106° (ESE) 18:28:54 437.445
KAITUO 1B 18 Dec 18:21:35 18:25:15 50° 260° (W) 18:28:58 145.475/437.950
Oscar 11 18 Dec 18:21:36 18:22:46 11° 52° (NE) 18:23:56 .
SO-50 18 Dec 18:24:36 18:28:01 20° 344° (NNW) 18:31:29 436.795
XW-2D 18 Dec 18:24:48 18:28:17 34° 264° (W) 18:31:50 145.860 - 145.880
ITUPSAT 1 18 Dec 18:31:27 18:33:39 13° 310° (NW) 18:35:51 437.325
CUBESAT XI-V 18 Dec 18:36:12 18:39:41 21° 302° (WNW) 18:43:11 437.345
HO-68 18 Dec 18:38:00 18:45:13 85° 252° (WSW) 18:52:28 435.675
AO-73 18 Dec 18:38:29 18:41:27 19° 59° (ENE) 18:44:26 145.935
XW-2B 18 Dec 18:41:16 18:44:27 25° 267° (W) 18:47:40 145.730 - 145.750
XW-2F 18 Dec 18:49:45 18:52:44 22° 268° (W) 18:55:45 145.980 - 146.000
STARS 18 Dec 18:50:49 18:55:12 74° 104° (ESE) 18:59:33 437.465
O/OREOS (USA 219) 18 Dec 18:58:35 19:01:36 18° 259° (W) 19:04:36 437.305
STRAND 1 18 Dec 19:02:57 19:06:23 18° 88° (E) 19:09:47 437.568
RS-15 18 Dec 19:04:04 19:15:43 45° 355° (N) 19:26:56 29.354- 29.394
SEEDS 18 Dec 19:08:06 19:12:21 76° 256° (WSW) 19:16:38 437.485
FO-29 18 Dec 19:10:07 19:10:32 10° 73° (ENE) 19:10:57 435.910
XW-2C 18 Dec 19:10:31 19:12:28 13° 272° (W) 19:14:24 145.795 - 145.815
XW-2A 18 Dec 19:11:54 19:15:12 53° 72° (ENE) 19:18:32 145.665 - 145.685
AAUSAT CUBESAT 2 18 Dec 19:13:53 19:18:01 60° 71° (ENE) 19:22:09 437.432
PCSat 18 Dec 19:26:14 19:31:40 78° 310° (NW) 19:37:08 145.827
UWE-3 18 Dec 19:26:39 19:30:47 84° 259° (W) 19:34:59 435.000/436.395/437.385
CUBEBUG 2 18 Dec 19:36:28 19:40:23 40° 262° (W) 19:44:20 437.445
DELFI C3 18 Dec 19:38:08 19:39:43 12° 56° (NE) 19:41:19 145.870
CUTE 1.7 + AOD 2 18 Dec 19:40:35 19:44:09 25° 267° (W) 19:47:46 437.475
CUTE-I 18 Dec 19:41:07 19:44:18 16° 274° (W) 19:47:30 437.470
ZACube-1 18 Dec 19:41:53 19:46:00 77° 74° (ENE) 19:50:13 437.345
Oscar 11 18 Dec 19:53:47 19:58:03 63° 72° (ENE) 20:02:22 .
KKS-1 18 Dec 19:57:43 20:00:27 16° 305° (NW) 20:03:10 437.445
SO-50 18 Dec 20:06:49 20:10:02 18° 9° (N) 20:13:17 436.795
